Find Starlink 31783

NORAD ID: 59750 Int'l Des: 2024-090 Owner: SPXS Country: US Constellation: starlink operational
LEOCIRCULAR

Live Position

Loading 3D Globe...

About Starlink 31783

Description loading...

Upcoming Passes

Passes for default location (London). Set your location on the main map for personalized predictions.

Altitude History

Loading altitude history...

Two-Line Element Set

1 59750U 24090W 26124.58066826 .00003706 00000-0 14409-3 0 9994
2 59750 42.9966 228.2177 0001235 256.4111 103.6603 15.27592057111975
Epoch: May 4, 2026 • Age: 9 hours

Current Status

Altitude 486.8 km
Velocity 7.62 km/s
Sub-Earth Point -18.79°S, 6.53°W
Launch Date May 13, 2024
Age 1.9 years
Type internet

Technical Details

Classification Payload
Mass 730.00 kg
Dry Mass 700.00 kg
Total Mass 730.00 kg
Length 0.30 m
Diameter 4.10 m
Span 29.00 m
Shape Box + pan
Manufacturer SPXS
Bus Type Starlink V2M
Phase Status In Orbit
Owner/State SPXS/US

Most Searched